Time,TemperatureF,DewpointF,PressureIn,WindDirection,WindDirectionDegrees,WindSpeedMPH,WindSpeedGustMPH,Humidity,HourlyPrecipIn,Conditions,Clouds,dailyrainin,SoftwareType,DateUTC
2013-04-11 00:02:00,35.0,32.0,-100.00,NE,55,9.0,16.0,87,-99.99,,,-99.99,,2013-04-11 05:02:00,
2013-04-11 00:12:00,35.0,32.0,-100.00,ENE,65,7.0,18.0,88,-99.99,,,-99.99,,2013-04-11 05:12:00,
2013-04-11 00:32:00,35.0,32.0,-100.00,ENE,65,7.0,18.0,88,-99.99,,,-99.99,,2013-04-11 05:32:00,
2013-04-11 00:42:00,35.0,32.0,-100.00,ENE,65,7.0,18.0,88,-99.99,,,-99.99,,2013-04-11 05:42:00,
2013-04-11 00:52:00,35.0,32.0,-100.00,ENE,65,7.0,18.0,88,-99.99,,,-99.99,,2013-04-11 05:52:00,
2013-04-11 01:02:00,35.0,32.0,-100.00,ENE,65,7.0,18.0,88,-99.99,,,-99.99,,2013-04-11 06:02:00,
2013-04-11 01:12:00,36.0,32.0,-100.00,East,80,14.0,30.0,85,-99.99,,,-99.99,,2013-04-11 06:12:00,
2013-04-11 01:32:00,36.0,32.0,-100.00,East,80,14.0,30.0,85,-99.99,,,-99.99,,2013-04-11 06:32:00,
2013-04-11 01:42:00,36.0,32.0,-100.00,East,80,14.0,30.0,85,-99.99,,,-99.99,,2013-04-11 06:42:00,
2013-04-11 01:52:00,36.0,32.0,-100.00,East,80,14.0,30.0,85,-99.99,,,-99.99,,2013-04-11 06:52:00,
2013-04-11 02:02:00,36.0,32.0,-100.00,East,80,14.0,30.0,85,-99.99,,,-99.99,,2013-04-11 07:02:00,
2013-04-11 02:11:00,36.0,32.0,-100.00,East,85,17.0,29.0,83,-99.99,,,-99.99,,2013-04-11 07:11:00,
2013-04-11 02:32:00,36.0,32.0,-100.00,East,85,17.0,29.0,83,-99.99,,,-99.99,,2013-04-11 07:32:00,
2013-04-11 02:43:00,36.0,32.0,-100.00,East,85,17.0,29.0,83,-99.99,,,-99.99,,2013-04-11 07:43:00,
2013-04-11 02:52:00,36.0,32.0,-100.00,East,85,17.0,29.0,83,-99.99,,,-99.99,,2013-04-11 07:52:00,
2013-04-11 03:02:00,36.0,32.0,-100.00,East,85,17.0,29.0,83,-99.99,,,-99.99,,2013-04-11 08:02:00,
2013-04-11 03:10:00,36.0,32.0,-100.00,ENE,75,14.0,26.0,87,-99.99,,,-99.99,,2013-04-11 08:10:00,
2013-04-11 03:33:00,36.0,32.0,-100.00,ENE,75,14.0,26.0,87,-99.99,,,-99.99,,2013-04-11 08:33:00,
2013-04-11 03:43:00,36.0,32.0,-100.00,ENE,75,14.0,26.0,87,-99.99,,,-99.99,,2013-04-11 08:43:00,
2013-04-11 03:52:00,36.0,32.0,-100.00,ENE,75,14.0,26.0,87,-99.99,,,-99.99,,2013-04-11 08:52:00,
2013-04-11 04:02:00,36.0,32.0,-100.00,ENE,75,14.0,26.0,87,-99.99,,,-99.99,,2013-04-11 09:02:00,
2013-04-11 04:12:00,35.0,32.0,-100.00,East,80,17.0,26.0,87,-99.99,,,-99.99,,2013-04-11 09:12:00,
2013-04-11 04:33:00,35.0,32.0,-100.00,East,80,17.0,26.0,87,-99.99,,,-99.99,,2013-04-11 09:33:00,
2013-04-11 04:43:00,35.0,32.0,-100.00,East,80,17.0,26.0,87,-99.99,,,-99.99,,2013-04-11 09:43:00,
2013-04-11 04:53:00,35.0,32.0,-100.00,East,80,17.0,26.0,87,-99.99,,,-99.99,,2013-04-11 09:53:00,
2013-04-11 05:02:00,35.0,32.0,-100.00,East,80,17.0,26.0,87,-99.99,,,-99.99,,2013-04-11 10:02:00,
2013-04-11 05:10:00,35.0,32.0,-100.00,ENE,75,16.0,29.0,88,-99.99,,,-99.99,,2013-04-11 10:10:00,
2013-04-11 05:32:00,35.0,32.0,-100.00,ENE,75,16.0,29.0,88,-99.99,,,-99.99,,2013-04-11 10:32:00,
2013-04-11 05:42:00,35.0,32.0,-100.00,ENE,75,16.0,29.0,88,-99.99,,,-99.99,,2013-04-11 10:42:00,
2013-04-11 05:52:00,35.0,32.0,-100.00,ENE,75,16.0,29.0,88,-99.99,,,-99.99,,2013-04-11 10:52:00,
2013-04-11 06:02:00,35.0,32.0,-100.00,ENE,75,16.0,29.0,88,-99.99,,,-99.99,,2013-04-11 11:02:00,
2013-04-11 06:12:00,35.0,32.0,-100.00,East,85,10.0,26.0,89,-99.99,,,-99.99,,2013-04-11 11:12:00,
2013-04-11 06:32:00,35.0,32.0,-100.00,East,85,10.0,26.0,89,-99.99,,,-99.99,,2013-04-11 11:32:00,
2013-04-11 06:43:00,35.0,32.0,-100.00,East,85,10.0,26.0,89,-99.99,,,-99.99,,2013-04-11 11:43:00,
2013-04-11 06:52:00,35.0,32.0,-100.00,East,85,10.0,26.0,89,-99.99,,,-99.99,,2013-04-11 11:52:00,
2013-04-11 07:02:00,35.0,32.0,-100.00,East,85,10.0,26.0,89,-99.99,,,-99.99,,2013-04-11 12:02:00,
2013-04-11 07:12:00,35.0,32.0,-100.00,East,80,11.0,21.0,89,-99.99,,,-99.99,,2013-04-11 12:12:00,
2013-04-11 07:32:00,35.0,32.0,-100.00,East,80,11.0,21.0,89,-99.99,,,-99.99,,2013-04-11 12:32:00,
2013-04-11 07:43:00,35.0,32.0,-100.00,East,80,11.0,21.0,89,-99.99,,,-99.99,,2013-04-11 12:43:00,
2013-04-11 07:52:00,35.0,32.0,-100.00,East,80,11.0,21.0,89,-99.99,,,-99.99,,2013-04-11 12:52:00,
2013-04-11 08:02:00,35.0,32.0,-100.00,East,80,11.0,21.0,89,-99.99,,,-99.99,,2013-04-11 13:02:00,
2013-04-11 08:11:00,35.0,32.0,-100.00,East,85,10.0,15.0,89,-99.99,,,-99.99,,2013-04-11 13:11:00,
2013-04-11 08:32:00,35.0,32.0,-100.00,East,85,10.0,15.0,89,-99.99,,,-99.99,,2013-04-11 13:32:00,
2013-04-11 08:43:00,35.0,32.0,-100.00,East,85,10.0,15.0,89,-99.99,,,-99.99,,2013-04-11 13:43:00,
2013-04-11 08:54:00,35.0,32.0,-100.00,East,85,10.0,15.0,89,-99.99,,,-99.99,,2013-04-11 13:54:00,
2013-04-11 09:02:00,35.0,32.0,-100.00,East,85,10.0,15.0,89,-99.99,,,-99.99,,2013-04-11 14:02:00,
2013-04-11 09:11:00,36.0,33.0,-100.00,ENE,75,11.0,22.0,89,-99.99,,,-99.99,,2013-04-11 14:11:00,
2013-04-11 09:33:00,36.0,33.0,-100.00,ENE,75,11.0,22.0,89,-99.99,,,-99.99,,2013-04-11 14:33:00,
2013-04-11 09:43:00,36.0,33.0,-100.00,ENE,75,11.0,22.0,89,-99.99,,,-99.99,,2013-04-11 14:43:00,
2013-04-11 09:53:00,36.0,33.0,-100.00,ENE,75,11.0,22.0,89,-99.99,,,-99.99,,2013-04-11 14:53:00,
2013-04-11 10:02:00,36.0,33.0,-100.00,ENE,75,11.0,22.0,89,-99.99,,,-99.99,,2013-04-11 15:02:00,
2013-04-11 11:12:00,38.0,34.0,-100.00,ENE,75,12.0,19.0,88,-99.99,,,-99.99,,2013-04-11 16:12:00,
2013-04-11 11:32:00,38.0,34.0,-100.00,ENE,75,12.0,19.0,88,-99.99,,,-99.99,,2013-04-11 16:32:00,
2013-04-11 11:42:00,38.0,34.0,-100.00,ENE,75,12.0,19.0,88,-99.99,,,-99.99,,2013-04-11 16:42:00,
2013-04-11 11:53:00,38.0,34.0,-100.00,ENE,75,12.0,19.0,88,-99.99,,,-99.99,,2013-04-11 16:53:00,
2013-04-11 12:02:00,38.0,34.0,-100.00,ENE,75,12.0,19.0,88,-99.99,,,-99.99,,2013-04-11 17:02:00,
2013-04-11 12:11:00,38.0,34.0,-100.00,ENE,75,9.0,19.0,87,-99.99,,,-99.99,,2013-04-11 17:11:00,
2013-04-11 12:33:00,38.0,34.0,-100.00,ENE,75,9.0,19.0,87,-99.99,,,-99.99,,2013-04-11 17:33:00,
2013-04-11 12:43:00,38.0,34.0,-100.00,ENE,75,9.0,19.0,87,-99.99,,,-99.99,,2013-04-11 17:43:00,
2013-04-11 12:53:00,38.0,34.0,-100.00,ENE,75,9.0,19.0,87,-99.99,,,-99.99,,2013-04-11 17:53:00,
2013-04-11 13:03:00,38.0,34.0,-100.00,ENE,75,9.0,19.0,87,-99.99,,,-99.99,,2013-04-11 18:03:00,
2013-04-11 14:33:00,38.0,35.0,-100.00,ENE,70,11.0,19.0,88,-99.99,,,-99.99,,2013-04-11 19:33:00,
2013-04-11 14:43:00,38.0,35.0,-100.00,ENE,70,11.0,19.0,88,-99.99,,,-99.99,,2013-04-11 19:43:00,
2013-04-11 14:53:00,38.0,35.0,-100.00,ENE,70,11.0,19.0,88,-99.99,,,-99.99,,2013-04-11 19:53:00,
2013-04-11 15:02:00,38.0,35.0,-100.00,ENE,70,11.0,19.0,88,-99.99,,,-99.99,,2013-04-11 20:02:00,
2013-04-11 15:11:00,39.0,35.0,-100.00,East,85,9.0,18.0,88,-99.99,,,-99.99,,2013-04-11 20:11:00,
2013-04-11 15:13:00,38.0,35.0,-100.00,ENE,70,11.0,19.0,88,-99.99,,,-99.99,,2013-04-11 20:13:00,
2013-04-11 15:34:00,39.0,35.0,-100.00,East,85,9.0,18.0,88,-99.99,,,-99.99,,2013-04-11 20:34:00,
2013-04-11 15:43:00,39.0,35.0,-100.00,East,85,9.0,18.0,88,-99.99,,,-99.99,,2013-04-11 20:43:00,
2013-04-11 15:52:00,39.0,35.0,-100.00,East,85,9.0,18.0,88,-99.99,,,-99.99,,2013-04-11 20:52:00,
2013-04-11 16:02:00,39.0,35.0,-100.00,East,85,9.0,18.0,88,-99.99,,,-99.99,,2013-04-11 21:02:00,
2013-04-11 16:13:00,39.0,35.0,-100.00,East,90,12.0,21.0,87,-99.99,,,-99.99,,2013-04-11 21:13:00,
2013-04-11 16:33:00,39.0,35.0,-100.00,East,90,12.0,21.0,87,-99.99,,,-99.99,,2013-04-11 21:33:00,
2013-04-11 16:43:00,39.0,35.0,-100.00,East,90,12.0,21.0,87,-99.99,,,-99.99,,2013-04-11 21:43:00,
2013-04-11 16:54:00,39.0,35.0,-100.00,East,90,12.0,21.0,87,-99.99,,,-99.99,,2013-04-11 21:54:00,
2013-04-11 17:03:00,39.0,35.0,-100.00,East,90,12.0,21.0,87,-99.99,,,-99.99,,2013-04-11 22:03:00,
2013-04-11 17:33:00,38.0,35.0,-100.00,ENE,75,9.0,16.0,88,-99.99,,,-99.99,,2013-04-11 22:33:00,
2013-04-11 17:44:00,38.0,35.0,-100.00,ENE,75,9.0,16.0,88,-99.99,,,-99.99,,2013-04-11 22:44:00,
2013-04-11 17:53:00,38.0,35.0,-100.00,ENE,75,9.0,16.0,88,-99.99,,,-99.99,,2013-04-11 22:53:00,
2013-04-11 18:03:00,38.0,35.0,-100.00,ENE,75,9.0,16.0,88,-99.99,,,-99.99,,2013-04-11 23:03:00,
2013-04-11 18:11:00,38.0,34.0,-100.00,ENE,70,8.0,17.0,88,-99.99,,,-99.99,,2013-04-11 23:11:00,
2013-04-11 18:12:00,38.0,35.0,-100.00,ENE,75,9.0,16.0,88,-99.99,,,-99.99,,2013-04-11 23:12:00,
2013-04-11 18:33:00,38.0,34.0,-100.00,ENE,70,8.0,17.0,88,-99.99,,,-99.99,,2013-04-11 23:33:00,
2013-04-11 18:43:00,38.0,34.0,-100.00,ENE,70,8.0,17.0,88,-99.99,,,-99.99,,2013-04-11 23:43:00,
2013-04-11 18:53:00,38.0,34.0,-100.00,ENE,70,8.0,17.0,88,-99.99,,,-99.99,,2013-04-11 23:53:00,
2013-04-11 19:02:00,38.0,34.0,-100.00,ENE,70,8.0,17.0,88,-99.99,,,-99.99,,2013-04-12 00:02:00,
2013-04-11 19:12:00,37.0,33.0,-100.00,East,85,9.0,17.0,88,-99.99,,,-99.99,,2013-04-12 00:12:00,
2013-04-11 19:33:00,37.0,33.0,-100.00,East,85,9.0,17.0,88,-99.99,,,-99.99,,2013-04-12 00:33:00,
2013-04-11 19:43:00,37.0,33.0,-100.00,East,85,9.0,17.0,88,-99.99,,,-99.99,,2013-04-12 00:43:00,
2013-04-11 19:53:00,37.0,33.0,-100.00,East,85,9.0,17.0,88,-99.99,,,-99.99,,2013-04-12 00:53:00,
2013-04-11 20:02:00,37.0,33.0,-100.00,East,85,9.0,17.0,88,-99.99,,,-99.99,,2013-04-12 01:02:00,
2013-04-11 21:11:00,36.0,33.0,-100.00,ENE,70,5.0,12.0,89,-99.99,,,-99.99,,2013-04-12 02:11:00,
2013-04-11 21:32:00,36.0,33.0,-100.00,ENE,70,5.0,12.0,89,-99.99,,,-99.99,,2013-04-12 02:32:00,
2013-04-11 21:42:00,36.0,33.0,-100.00,ENE,70,5.0,12.0,89,-99.99,,,-99.99,,2013-04-12 02:42:00,
2013-04-11 21:52:00,36.0,33.0,-100.00,ENE,70,5.0,12.0,89,-99.99,,,-99.99,,2013-04-12 02:52:00,
2013-04-11 22:02:00,36.0,33.0,-100.00,ENE,70,5.0,12.0,89,-99.99,,,-99.99,,2013-04-12 03:02:00,
2013-04-11 22:11:00,35.0,33.0,-100.00,East,85,7.0,12.0,89,-99.99,,,-99.99,,2013-04-12 03:11:00,
2013-04-11 22:33:00,35.0,33.0,-100.00,East,85,7.0,12.0,89,-99.99,,,-99.99,,2013-04-12 03:33:00,
2013-04-11 22:43:00,35.0,33.0,-100.00,East,85,7.0,12.0,89,-99.99,,,-99.99,,2013-04-12 03:43:00,
2013-04-11 22:53:00,35.0,33.0,-100.00,East,85,7.0,12.0,89,-99.99,,,-99.99,,2013-04-12 03:53:00,
2013-04-11 23:03:00,35.0,33.0,-100.00,East,85,7.0,12.0,89,-99.99,,,-99.99,,2013-04-12 04:03:00,
2013-04-11 23:12:00,35.0,33.0,-100.00,East,80,2.0,7.0,90,-99.99,,,-99.99,,2013-04-12 04:12:00,
2013-04-11 23:33:00,35.0,33.0,-100.00,East,80,2.0,7.0,90,-99.99,,,-99.99,,2013-04-12 04:33:00,
2013-04-11 23:43:00,35.0,33.0,-100.00,East,80,2.0,7.0,90,-99.99,,,-99.99,,2013-04-12 04:43:00,
2013-04-11 23:53:00,35.0,33.0,-100.00,East,80,2.0,7.0,90,-99.99,,,-99.99,,2013-04-12 04:53:00,